COSMOS 2491 DEB, 47110

Orbit data source: Space-Track

COSMOS 2491 DEB, 47110 is space debris in LEO originally from a launch on Wed, 25 Dec 2013 UTC launched from the Plesetsk Missile And Space Complex (PKMTR). Debris objects in space refer to the collection of defunct objects orbiting the Earth. Examples of debris include non-operational satellites, rocket bodies, and fragments generated from explosions, collisions, or faulty payload assembly.

Loading next visibility...
Identifier
47110, 2013-076AF
Orbit
LEO
Country
Flag of CISCIS
Related business
Manufacturer
TsNIIKhM
Mission
Spacecraft
Bus & Motor
Unknown
Mass
Unknown
Launch date (UTC)
2013-12-25 (13 years ago)
Launch vehicle
Unknown
Launch site
Plesetsk Missile And Space Complex (PKMTR)
Object type
Payload
Rocket body
Debris
Shape & HBR
Unknown shape, 0.1 m
Radar Cross Section
Small (<0.1 m²)

Expand to show TLE details & history
Last TLE update: 2 days ago

TLE from 2 days ago
0 COSMOS 2491 DEB
1 47110U 13076AF  26176.58213512  .00002341  00000-0  13578-1 0  9994
2 47110  82.4385 129.0866 0058405 150.5568 209.8832 12.58718455292651
Epoch: 2026-06-25T13:58Z
TLE epoch observation values (Epoch: 2026-06-25T13:58:16.474Z)
Latitude
Longitude
5.79503°
Altitude
1,470.564 km
Speed
7.11 km/s
True Right ascension
08h 36m 20s
True Declination
0° 00' 00"
Sunlit
Object was in daylight at epoch
Visualization orbit readout
Latitude
Unknown
Longitude
Unknown
Altitude
Unknown
Speed
Unknown
Apparent Right ascension
Unknown
Apparent Declination
Unknown
Sunlit
N/A
Visualization observer readout
Local Sidereal Time
03:09:14
Azimuth
Unknown
Elevation
Unknown
Doppler factor
Unknown
Orbital elements
Apogee altitude
1,471.147 km
Perigee altitude
1,379.992 km
Semi-major axis
7,803.707 km
Eccentricity
0.00584
Inclination
82.4385°
RAAN
129.0866°
Arg. of periapsis
150.5568°
True anomaly
209.55185°
Mean anomaly
209.8832°
Eccentric anomaly
209.71731°
Mean motion
3.14841 °/min
Orbital period
114.34 mins
BSTAR
0.013578
Loading maneuver chart data...
Computing Atmospheric mass density...
Loading historical data...
Loading historical data...
Loading historical data...
Loading historical data...
Loading historical data...
Loading historical data...
Loading historical data...

Documentation

Showing up to 5 results
|